Cairo, Egypt

11:42 AM EET on April 24, 2018 (GMT +0200)
Cairo International Airport

Weather History for HECA - February, 2013

Change the Weather History Date:

Wednesday, February 20, 2013

  Actual Average Record
Temperature  
Mean Temperature 62 °F -  
Max Temperature 72 °F 70 °F 80 °F (2007)
Min Temperature 52 °F 52 °F 42 °F (2015)
Degree Days  
Heating Degree Days 3    
Growing Degree Days 12 (Base 50)    
Moisture  
Dew Point 36 °F    
Average Humidity 40    
Maximum Humidity 62    
Minimum Humidity 16    
Precipitation  
Precipitation 0.00 in 0.01 in - ()
Sea Level Pressure  
Sea Level Pressure 30.10 in    
Wind  
Wind Speed 5 mph ()    
Max Wind Speed 10 mph    
Max Gust Speed -    
Visibility 4.8 miles    
Events      
Averages and records for this station are not official NWS values.
T = Trace of Precipitation, MM = Missing Value Source: Averaged Metar Reports

Daily Weather History Graph

Daily Weather History Graph

Search for Another Location

Airport or City:

Astronomy

Feb. 20, 2013 Rise Set
Actual Time 6:29 AM EET 5:46 PM EET
Civil Twilight 6:05 AM EET 6:11 PM EET
Nautical Twilight 5:37 AM EET 6:39 PM EET
Astronomical Twilight 5:09 AM EET 7:06 PM EET
Moon 1:03 PM EET (2/20) 2:21 AM EET (2/20)
Length of Visible Light 12h 05m
Length of Day
11h 17m
Waxing Gibbous, 73% of the Moon is Illuminated
Feb 20
Waxing Gibbous
Feb 25
Full
Mar 4
Last Quarter
Mar 11
New
Mar 19
First Quarter

Hourly Weather History & Observations

Time (EET) Temp. Dew Point Humidity Pressure Visibility Wind Dir Wind Speed Gust Speed Precip Events Conditions
12:00 AM 55.4 °F 41.0 °F 58% 30.09 in - ESE 4.6 mph - N/A   Clear
12:30 AM 55.4 °F 41.0 °F 58% 30.09 in - ESE 3.5 mph - N/A   Clear
1:00 AM 55.4 °F 41.0 °F 58% 30.09 in - Calm Calm - N/A   Clear
1:30 AM 53.6 °F 41.0 °F 62% 30.09 in - ENE 2.3 mph - N/A   Clear
2:00 AM 54 °F 41 °F 51% 30.12 in 6 mi ENE 2.3 mph - -  
2:30 AM 53.6 °F 41.0 °F 62% 30.09 in - SE 1.2 mph - N/A   Clear
3:00 AM 53.6 °F 41.0 °F 62% 30.09 in - ESE 9.2 mph - N/A   Clear
3:30 AM 55.4 °F 41.0 °F 58% 30.09 in - SE 10.4 mph - N/A   Clear
4:00 AM 55.4 °F 41.0 °F 58% 30.09 in - ESE 9.2 mph - N/A   Clear
4:30 AM 53.6 °F 41.0 °F 62% 30.09 in - SSE 6.9 mph - N/A   Clear
5:00 AM 53.6 °F 41.0 °F 62% 30.09 in - SSE 9.2 mph - N/A   Clear
5:30 AM 53.6 °F 41.0 °F 62% 30.09 in - SE 8.1 mph - N/A   Clear
6:00 AM 53.6 °F 41.0 °F 62% 30.12 in - SE 9.2 mph - N/A   Clear
6:30 AM 53.6 °F 41.0 °F 62% 30.12 in - SE 9.2 mph - N/A   Clear
7:00 AM 53.6 °F 41.0 °F 62% 30.12 in - SE 9.2 mph - N/A   Clear
7:30 AM 55.4 °F 41.0 °F 58% 30.12 in - SE 9.2 mph - N/A   Clear
8:00 AM 58 °F 42 °F 44% 30.14 in 6 mi SSE 6.9 mph - -  
8:00 AM 59.0 °F 42.8 °F 55% 30.12 in - SSE 6.9 mph - N/A   Clear
8:30 AM 62.6 °F 42.8 °F 48% 30.15 in - SSE 6.9 mph - N/A   Clear
9:00 AM 64.4 °F 39.2 °F 40% 30.15 in - South 6.9 mph - N/A   Clear
9:30 AM 64.4 °F 37.4 °F 37% 30.15 in - SSW 5.8 mph - N/A   Clear
10:00 AM 64.4 °F 37.4 °F 37% 30.15 in - SSW 5.8 mph - N/A   Clear
10:30 AM 66.2 °F 37.4 °F 35% 30.15 in - West 3.5 mph - N/A   Clear
11:00 AM 66.2 °F 35.6 °F 32% 30.12 in - WSW 4.6 mph - N/A   Clear
11:30 AM 68.0 °F 35.6 °F 30% 30.12 in - West 5.8 mph - N/A   Clear
12:00 PM 68.0 °F 30.2 °F 24% 30.12 in - WSW 9.2 mph - N/A   Clear
12:30 PM 69.8 °F 33.8 °F 27% 30.12 in - WNW 6.9 mph - N/A   Clear
1:00 PM 69.8 °F 32.0 °F 25% 30.09 in - WNW 5.8 mph - N/A   Clear
1:30 PM 69.8 °F 33.8 °F 27% 30.09 in - West 10.4 mph - N/A   Clear
2:00 PM 70 °F 35 °F 17% 30.09 in 6 mi SW 9.2 mph - -  
2:00 PM 69.8 °F 35.6 °F 28% 30.09 in - SW 9.2 mph - N/A   Clear
2:30 PM 69.8 °F 35.6 °F 28% 30.06 in - WSW 6.9 mph - N/A   Clear
3:00 PM 71.6 °F 35.6 °F 27% 30.06 in - West 5.8 mph - N/A   Clear
3:30 PM 71.6 °F 30.2 °F 22% 30.06 in - SW 4.6 mph - N/A   Clear
4:00 PM 71.6 °F 30.2 °F 22% 30.06 in - West 5.8 mph - N/A   Clear
4:30 PM 71.6 °F 30.2 °F 22% 30.06 in - West 6.9 mph - N/A   Clear
5:00 PM 71.6 °F 30.2 °F 22% 30.06 in - West 4.6 mph - N/A   Clear
5:30 PM 69.8 °F 28.4 °F 21% 30.06 in - WSW 3.5 mph - N/A   Clear
6:00 PM 69.8 °F 28.4 °F 21% 30.06 in - WSW 3.5 mph - N/A   Clear
6:30 PM 68.0 °F 30.2 °F 24% 30.06 in - East 2.3 mph - N/A   Clear
7:00 PM 68.0 °F 30.2 °F 24% 30.06 in - NE 3.5 mph - N/A   Clear
7:30 PM 68.0 °F 30.2 °F 24% 30.09 in - East 3.5 mph - N/A   Clear
8:00 PM 66 °F 31 °F 16% 30.10 in 6 mi ESE 5.8 mph - -  
8:00 PM 66.2 °F 30.2 °F 26% 30.09 in - ESE 5.8 mph - N/A   Clear
8:30 PM 64.4 °F 32.0 °F 30% 30.09 in - ESE 6.9 mph - N/A   Clear
9:30 PM 60.8 °F 32.0 °F 34% 30.09 in - SSE 8.1 mph - N/A   Clear
10:00 PM 60.8 °F 33.8 °F 36% 30.09 in 3.7 mi SSE 8.1 mph - N/A   Unknown
10:30 PM 60.8 °F 35.6 °F 39% 30.09 in 3.7 mi SE 8.1 mph - N/A   Unknown
11:00 PM 60.8 °F 35.6 °F 39% 30.09 in 3.7 mi SSE 9.2 mph - N/A   Unknown
11:30 PM 59.0 °F 35.6 °F 42% 30.09 in 3.7 mi SSE 6.9 mph - N/A   Unknown